Theta_e
334 340 341 341 339 337 336 337 338 339 340 339 339 339 339 339 339 340 339 338 338 338 339 338 336 335 335 336 336 336 337 337 337 337 336 336 336 335 334 333 332 331 331 331 331 332 333 333 335 334 334 338 341 340 339 338 339 340 341 343 344 344 343 342 342 342 343 342 343 343 342 344 345 345 345 345 345 343 341 342 344 344 345 345 345
334 335 339 342 340 339 336 337 337 337 340 341 341 339 339 339 341 341 340 339 336 335 336 337 336 336 337 337 337 337 337 337 337 337 337 337 337 336 336 335 334 333 331 331 331 333 334 335 336 336 336 336 339 341 342 340 338 339 341 342 343 344 343 342 342 342 342 343 342 342 342 344 345 346 345 345 345 343 341 342 343 344 345 345 346
335 333 336 341 340 340 337 337 336 337 339 341 342 340 339 339 340 341 341 341 339 338 336 336 337 338 339 338 338 337 338 337 337 337 337 337 337 336 336 336 335 334 333 333 332 332 334 336 337 337 337 337 337 337 340 342 340 338 340 341 342 343 344 343 342 341 342 343 343 342 344 344 345 345 345 345 344 343 342 342 343 344 345 345 345
335 335 336 340 340 341 339 338 337 338 339 341 342 341 340 339 339 340 341 341 341 341 340 340 339 340 340 339 339 338 338 337 337 337 337 337 337 336 336 336 335 334 334 335 334 335 335 336 336 337 337 337 338 336 336 341 342 340 339 339 340 343 343 343 342 341 341 343 343 343 344 344 345 345 345 345 344 343 342 343 344 345 345 345 345
336 337 339 341 341 341 340 339 338 338 339 339 341 341 340 338 338 338 339 340 340 341 341 341 340 340 340 340 340 339 339 338 338 337 337 337 337 337 336 336 335 335 336 336 336 337 337 337 337 337 336 336 338 337 335 337 341 341 340 338 339 342 343 342 342 340 340 343 343 344 343 344 345 344 344 345 344 342 343 343 344 345 345 345 345
332 333 333 335 336 337 338 337 337 337 337 338 339 340 341 340 338 337 337 338 338 339 339 340 339 339 339 339 339 339 339 339 339 338 337 337 337 337 337 337 337 337 337 337 337 336 336 337 337 337 336 336 337 338 337 336 339 340 340 339 338 341 343 342 342 340 340 342 344 344 343 343 344 344 343 345 345 342 343 344 345 346 345 345 345
326 326 326 327 328 329 330 329 330 331 333 335 337 337 339 340 340 339 338 338 338 338 338 339 339 339 339 339 339 338 339 339 338 338 337 337 337 337 337 337 337 338 337 337 337 337 337 337 337 336 334 333 334 336 338 337 337 339 338 338 337 339 342 343 342 341 340 342 344 343 343 344 344 343 344 345 344 342 343 343 344 345 345 345 345
323 324 324 325 326 327 326 326 326 326 327 328 330 330 332 334 337 339 339 339 339 338 338 338 338 338 339 339 339 339 339 339 338 339 338 338 337 337 337 337 337 337 337 338 337 337 338 338 338 337 335 332 328 328 333 337 338 337 336 336 337 337 340 342 342 341 341 343 343 342 343 343 343 343 344 345 343 342 343 343 344 344 344 344 345
319 320 322 322 324 326 326 326 327 326 326 326 326 325 326 327 329 333 336 338 337 338 338 337 337 337 338 338 339 339 339 339 339 338 338 338 337 337 337 337 337 336 336 337 337 336 337 338 338 338 338 337 333 328 326 331 336 337 335 335 337 337 339 341 341 341 341 343 343 341 342 343 343 342 344 345 342 342 343 344 344 344 343 343 344
313 315 316 316 317 319 321 323 324 325 326 326 326 326 325 325 325 327 330 333 335 337 338 338 337 337 337 337 338 338 339 339 339 338 337 338 337 337 337 337 336 335 335 335 336 336 336 336 338 338 339 339 339 336 330 327 330 333 334 333 335 337 337 340 341 341 342 343 342 340 341 343 343 342 343 345 343 342 344 344 344 343 343 343 343
309 310 310 309 310 313 315 317 319 321 322 323 325 325 324 324 325 325 326 328 331 334 336 337 336 336 337 337 337 338 338 338 338 338 338 337 337 338 338 338 336 336 335 334 334 335 336 335 336 337 338 339 340 339 337 333 328 327 330 331 334 336 337 339 340 341 342 342 341 339 339 342 342 341 342 344 343 343 344 344 343 343 343 343 344
306 306 304 303 305 309 312 314 315 317 318 319 321 322 322 323 324 324 325 325 327 328 330 331 332 334 335 336 336 336 337 337 337 338 338 337 338 337 337 337 337 337 336 335 334 333 334 335 335 335 337 338 339 339 339 338 334 329 326 327 332 334 335 338 339 340 342 342 341 338 337 341 342 340 342 344 344 343 344 344 344 343 344 344 344
304 303 301 300 300 303 306 310 313 315 316 317 318 319 320 321 322 323 323 324 325 325 325 325 325 327 328 330 331 333 334 335 336 337 337 337 338 337 336 336 336 337 337 336 335 334 333 333 334 335 336 336 338 339 338 339 338 335 328 324 329 331 331 337 340 338 339 341 340 339 339 340 341 340 341 344 344 343 343 343 343 343 343 344 343
302 302 301 300 300 300 301 303 305 308 311 313 314 316 318 319 320 321 322 322 323 324 325 324 324 323 323 324 325 327 329 330 333 335 335 336 336 336 336 336 335 336 336 337 336 336 333 332 333 334 335 335 337 338 338 339 338 338 334 327 327 329 329 334 339 338 337 339 340 340 340 340 339 339 340 343 344 344 343 343 343 343 343 344 343
302 301 300 299 300 299 299 299 299 301 302 304 306 308 312 315 317 318 319 320 321 322 323 324 324 324 323 323 323 323 324 325 327 330 332 334 335 334 334 335 336 335 335 336 338 337 334 332 332 333 333 334 337 337 337 338 338 338 337 332 325 328 332 333 337 338 336 338 340 340 340 339 337 337 338 341 344 343 343 343 344 343 343 342 342
299 299 299 298 298 298 299 298 297 298 298 299 299 300 303 306 309 311 313 314 316 319 320 321 322 323 323 324 325 325 325 324 323 323 325 328 331 332 334 334 334 335 335 336 337 337 334 332 332 332 332 333 335 336 336 336 337 337 338 336 328 328 335 337 337 338 337 337 340 340 339 339 337 338 338 339 343 343 342 343 343 343 343 342 342
298 297 297 297 297 297 297 297 297 297 297 297 297 298 298 299 301 302 303 304 307 310 314 317 319 321 322 323 325 326 327 327 327 325 324 324 324 326 329 332 332 333 335 336 335 335 336 334 331 331 331 332 334 334 335 335 335 335 337 337 333 328 332 337 338 338 337 337 338 338 339 340 338 339 338 339 342 342 341 341 342 343 343 342 342
297 297 297 297 297 297 297 297 297 297 296 296 295 296 297 297 297 297 298 298 299 301 305 309 313 316 319 321 322 324 325 325 327 327 327 326 326 325 325 327 330 332 334 335 335 334 335 335 332 331 330 331 333 333 333 334 334 335 335 336 336 331 329 334 339 338 337 336 337 337 338 339 339 339 338 339 341 342 341 341 342 343 343 342 341
297 296 297 296 297 297 297 297 297 296 295 295 295 295 296 296 295 295 296 296 297 297 299 301 305 310 313 315 318 320 322 323 324 324 325 325 326 327 326 326 326 329 332 333 334 334 334 334 333 331 330 330 332 333 332 332 333 334 335 335 336 335 332 333 337 339 337 336 336 336 337 338 338 338 338 339 341 342 340 341 341 342 343 341 341
297 297 297 296 297 297 297 297 297 296 294 294 294 294 295 295 295 295 295 295 295 296 297 298 300 304 307 309 310 312 316 319 321 322 323 323 323 324 326 326 326 327 329 331 333 334 334 333 333 332 330 329 330 331 332 331 332 334 334 334 335 336 336 334 336 338 338 336 336 335 334 336 338 338 338 338 340 342 340 340 342 342 342 341 340
298 297 297 296 296 297 297 297 297 295 294 294 294 294 295 294 294 294 294 294 294 295 295 298 299 300 301 301 302 307 312 315 318 320 321 323 324 324 324 326 326 327 327 329 331 334 334 333 333 333 331 329 329 330 330 331 332 333 333 333 333 335 337 335 335 338 339 338 336 335 332 334 337 338 338 338 339 341 340 340 341 341 342 342 341
299 297 297 296 295 296 298 297 296 295 294 294 294 294 295 294 294 294 294 294 295 294 295 297 298 297 297 297 300 305 311 314 316 318 320 322 323 323 324 325 326 327 328 328 329 331 333 334 333 333 332 330 329 329 330 330 331 332 333 332 332 334 337 336 335 337 339 339 338 336 331 332 336 337 337 338 339 340 340 339 340 341 342 342 340
298 298 297 296 295 295 297 297 296 294 294 294 294 294 294 295 294 294 294 294 295 295 295 296 296 295 295 297 301 304 305 308 312 315 318 320 320 320 321 322 323 324 327 329 328 329 332 334 334 333 333 330 329 330 330 330 330 331 331 331 332 334 336 336 336 336 338 339 338 337 334 331 335 337 337 338 338 339 339 339 340 340 340 341 340
296 297 297 296 295 294 297 297 295 294 294 294 294 294 294 294 295 294 294 295 295 295 295 296 296 296 295 297 300 300 300 300 302 306 312 317 318 318 319 321 321 322 325 329 330 329 330 333 334 333 333 331 330 330 330 329 329 329 330 331 331 333 336 336 336 335 337 338 337 337 336 332 334 336 337 338 339 338 338 339 340 340 339 340 340
295 296 296 296 294 294 295 296 295 294 294 294 294 294 294 294 294 294 294 294 294 294 295 296 296 296 296 297 297 297 297 297 298 301 308 312 314 314 316 319 321 321 323 326 329 330 330 331 333 333 333 332 330 331 330 329 329 329 329 329 329 331 335 336 335 335 336 338 338 337 336 334 333 336 337 339 339 338 337 339 339 339 339 339 339
295 295 295 295 294 293 294 295 295 294 293 294 293 293 294 294 294 294 294 294 294 294 294 295 295 296 296 297 297 296 296 296 298 302 304 302 303 305 308 311 313 317 319 322 326 329 330 330 332 333 333 332 331 330 330 330 329 329 328 328 329 330 334 337 336 335 335 337 338 338 337 335 334 335 336 338 339 337 336 338 338 339 339 339 338
295 295 295 294 293 293 294 294 294 293 293 293 293 293 293 294 294 293 293 293 293 293 294 294 294 295 296 296 297 297 297 296 297 299 299 298 298 298 300 303 308 312 315 318 321 325 328 330 331 332 332 332 332 331 330 330 329 329 328 328 328 329 333 336 336 335 334 335 337 338 337 336 335 335 336 337 339 338 336 336 336 338 339 339 339
294 294 294 294 293 293 293 293 294 293 293 293 293 293 293 293 293 293 293 293 293 293 293 293 294 294 295 296 296 296 297 297 297 296 296 297 298 298 299 303 307 310 311 313 316 320 324 328 329 330 332 331 331 331 330 330 330 329 329 328 328 329 331 334 336 336 334 334 336 337 337 336 336 335 335 336 337 337 337 336 336 337 339 339 338
294 294 293 293 293 293 293 293 293 293 293 293 293 293 293 293 293 293 293 293 293 293 293 293 293 293 294 294 295 295 296 297 297 297 296 296 297 298 300 303 306 308 308 308 311 316 320 325 328 329 330 331 331 331 330 330 330 329 329 329 328 328 330 332 335 336 335 334 335 336 336 335 334 334 334 335 334 335 337 337 336 337 338 339 338
293 293 293 292 292 293 293 292 292 292 292 292 292 292 292 292 292 292 292 292 292 292 292 293 293 293 293 293 294 294 296 297 297 297 296 296 296 297 299 301 303 305 306 304 305 310 316 320 325 328 329 330 331 330 330 330 329 329 329 329 329 328 329 331 334 335 335 334 334 335 335 333 331 332 334 334 332 334 338 338 338 337 337 338 338
293 293 292 292 292 292 292 292 292 292 292 292 292 292 292 292 292 292 292 292 292 292 292 292 292 292 293 293 293 293 294 295 296 297 297 296 296 297 298 300 301 302 304 304 303 306 312 315 320 325 327 328 329 330 330 329 329 329 329 329 329 329 329 331 333 334 335 334 333 333 334 332 330 330 333 334 332 334 338 339 339 339 337 337 338
292 292 292 292 292 292 292 292 292 292 292 292 292 292 292 292 292 291 291 291 291 291 292 292 292 292 292 292 293 293 293 294 295 296 296 296 296 297 297 299 300 300 302 304 306 307 309 312 314 320 325 325 327 328 329 329 329 329 329 328 328 329 329 330 332 333 334 334 333 333 332 331 329 330 332 333 333 333 336 338 339 339 338 337 338
292 292 292 292 292 292 292 292 292 292 292 292 291 291 291 291 291 291 291 291 291 291 291 291 291 291 292 292 292 292 293 293 294 295 295 296 296 296 297 298 299 300 300 302 305 306 306 308 310 315 322 325 325 326 327 328 328 328 328 328 328 329 329 329 331 333 334 334 333 333 332 331 328 329 333 334 333 330 333 337 338 338 338 337 337
292 292 292 292 292 291 292 291 291 292 291 291 291 291 291 291 291 291 291 291 290 290 290 290 291 291 291 291 292 292 293 293 293 294 294 296 296 295 296 298 299 299 299 301 303 302 301 302 304 309 317 323 325 325 326 327 327 328 328 328 328 328 328 329 330 332 333 333 333 333 332 331 329 329 332 335 334 330 332 336 338 338 338 337 338
292 292 292 292 291 291 291 291 291 291 291 291 291 290 290 290 291 290 290 290 289 289 290 290 290 290 290 291 291 292 292 293 293 293 294 295 295 295 296 297 298 298 299 300 300 299 299 301 302 305 312 319 324 324 325 326 326 327 327 328 328 328 328 329 330 331 331 332 333 333 332 331 330 329 330 333 335 333 334 336 337 338 337 337 337
292 292 291 291 291 291 291 291 291 290 290 290 290 290 290 290 290 290 289 289 289 289 289 289 290 290 290 291 291 291 292 292 292 293 294 294 294 295 296 297 298 298 299 300 299 298 299 301 303 305 309 315 321 323 324 325 326 327 327 327 327 327 328 328 329 330 330 331 332 332 332 332 331 330 330 333 335 335 335 336 337 337 337 337 337
291 291 291 291 291 291 291 290 290 290 290 290 289 290 290 290 289 289 288 288 288 288 288 289 289 289 289 290 290 290 291 291 292 293 293 294 294 294 295 296 297 297 298 300 299 298 299 302 303 305 308 312 318 322 323 324 325 326 326 327 326 327 328 329 329 329 329 329 330 331 331 331 331 331 331 333 335 335 336 336 336 335 336 337 336
291 291 291 291 291 291 290 290 290 289 289 289 289 289 289 289 288 287 287 287 287 287 287 287 287 287 287 288 288 288 288 289 290 292 293 293 294 294 295 296 297 297 298 299 299 298 299 301 303 304 306 309 314 320 323 323 325 325 325 326 326 327 327 328 329 329 329 329 329 330 331 331 331 331 331 333 334 334 336 336 336 335 336 337 335
291 291 291 290 290 290 290 289 289 289 289 289 288 288 288 287 287 286 286 286 286 285 285 285 285 285 285 285 285 286 287 287 289 290 292 293 294 294 295 296 297 297 299 300 299 298 299 299 300 301 302 305 309 317 322 323 324 324 325 325 325 326 327 328 328 329 329 330 330 329 330 331 331 331 332 333 333 334 335 335 336 336 336 337 335
291 290 290 290 290 290 289 289 289 289 288 288 288 287 287 286 286 285 285 285 285 284 284 284 284 284 284 284 284 285 286 287 287 288 290 292 294 294 294 295 296 298 299 300 299 298 299 298 299 299 301 303 306 312 320 323 323 324 324 324 325 325 326 327 327 328 329 329 330 329 329 330 330 331 331 332 333 334 334 334 335 336 336 336 335
290 290 290 290 289 289 289 288 288 288 288 287 287 286 286 285 285 285 284 284 284 283 283 283 283 283 283 284 284 285 285 285 285 285 287 289 291 293 294 295 295 297 299 299 298 298 298 298 298 299 300 303 306 309 315 321 322 322 322 321 322 323 325 325 326 326 327 328 329 329 329 329 330 330 331 332 332 333 334 333 334 335 336 335 334
290 290 290 289 289 288 288 288 288 288 287 287 286 285 285 284 284 284 284 283 283 283 283 283 283 283 283 283 284 284 284 284 284 284 285 286 288 291 293 294 296 297 299 299 298 298 298 298 298 299 300 303 306 307 311 318 321 320 319 318 317 319 320 321 324 325 325 326 326 328 329 328 328 329 330 331 332 333 333 333 334 335 335 332 332
290 290 290 289 288 288 288 288 287 287 286 286 285 285 284 283 283 283 283 283 283 283 283 282 283 283 283 283 283 283 283 283 283 283 284 285 287 288 291 294 296 297 297 297 298 298 298 298 298 299 300 302 304 304 306 314 320 319 318 318 317 318 318 317 320 322 323 323 324 325 327 328 328 328 329 329 330 331 332 332 333 334 334 332 330
290 290 289 289 288 288 287 287 287 286 286 285 285 284 283 283 283 282 282 282 282 282 282 282 282 282 282 282 282 282 282 282 283 283 283 284 285 287 289 291 294 295 296 297 298 298 298 298 297 297 300 303 304 304 303 308 317 320 319 320 319 320 321 318 317 318 319 321 322 323 325 326 326 327 327 328 328 330 331 332 332 331 331 331 329
290 290 289 288 288 287 287 286 286 286 285 285 284 284 283 282 282 282 282 282 282 282 282 282 281 281 281 281 281 281 281 281 282 282 282 283 284 285 287 289 291 294 295 297 298 298 298 297 296 296 298 302 303 304 303 304 312 319 320 320 320 322 323 320 318 317 316 318 321 321 323 323 324 324 325 326 326 328 329 330 330 329 329 330 329
290 289 288 288 287 287 286 286 285 285 285 284 284 283 282 282 281 281 281 281 281 281 281 281 281 281 281 280 280 281 280 281 281 282 282 282 283 284 285 287 289 292 295 296 297 298 298 297 296 295 296 299 302 303 304 304 306 313 319 320 320 322 322 320 321 318 314 315 318 320 322 322 322 322 323 324 325 327 327 327 328 328 327 327 328
290 289 288 287 287 286 286 285 285 284 284 283 283 283 282 281 281 281 281 281 281 281 280 280 280 280 280 280 280 280 280 280 281 282 282 281 282 283 284 286 288 290 293 296 297 298 298 297 296 294 295 298 301 303 304 304 305 308 315 320 318 319 320 319 321 320 316 315 315 318 321 321 322 322 323 323 324 325 325 325 326 326 326 326 325
289 288 288 287 286 286 285 285 284 284 283 283 283 282 282 281 281 280 280 280 280 280 280 280 280 280 280 280 279 280 280 280 281 281 281 281 281 282 284 285 286 287 290 293 296 297 297 297 295 294 294 296 300 303 303 303 304 305 311 319 318 316 318 319 320 320 319 318 315 315 318 320 321 322 322 323 323 325 324 323 324 325 324 325 325
289 288 287 287 286 286 285 285 284 283 283 282 282 282 281 281 280 280 280 280 280 279 279 279 279 279 279 279 279 279 280 280 280 280 280 280 280 281 283 284 284 285 287 291 293 296 297 297 296 294 294 294 297 300 303 303 304 303 307 315 315 314 317 319 318 318 319 320 318 316 315 317 319 320 321 322 322 324 323 322 323 324 323 324 324
288 288 287 286 286 285 285 284 284 283 282 282 282 281 281 280 280 280 279 279 279 279 279 279 279 279 278 279 279 279 279 279 279 279 279 279 280 280 281 281 282 283 285 288 291 294 297 297 296 294 293 293 294 297 301 302 303 302 303 309 313 313 316 317 316 316 318 319 319 318 316 316 319 318 318 320 321 322 322 321 321 322 323 323 324
288 287 286 286 286 285 284 284 283 283 282 281 281 281 280 280 279 279 279 279 279 278 278 278 278 278 278 278 278 278 278 278 278 278 279 279 279 279 280 280 281 282 284 286 288 292 295 297 296 294 293 293 293 295 298 301 302 302 301 303 309 314 315 316 316 316 318 319 318 318 317 317 318 317 317 319 320 321 322 322 321 322 322 322 323
Wind_Speed
19 14 12 12 15 14 8 4 2 3 1 1 1 1 3 4 4 4 4 5 5 4 4 5 5 4 3 3 3 3 3 4 4 5 6 7 7 8 8 8 9 10 11 11 12 12 12 12 11 10 10 9 8 8 9 8 8 10 11 12 13 14 14 14 14 11 8 9 9 9 9 9 9 10 12 13 15 17 17 17 18 19 19 18 20
14 15 13 12 15 16 12 5 2 2 2 1 1 1 2 4 5 5 5 4 5 5 6 6 6 5 4 4 3 3 4 5 5 6 6 8 8 9 9 9 9 10 11 11 11 12 12 12 12 12 11 11 10 9 9 10 10 10 11 12 13 14 15 15 14 11 9 9 10 10 10 10 9 11 13 15 16 18 18 18 19 19 19 19 20
10 14 14 14 15 17 15 9 3 1 2 2 2 3 3 4 6 6 5 5 5 5 6 7 7 6 6 6 5 5 5 6 7 7 7 9 9 10 10 10 11 12 13 11 10 10 11 11 12 12 12 12 12 11 10 11 12 11 11 13 13 14 15 16 15 12 10 10 11 11 10 10 11 12 14 16 17 19 19 19 20 19 19 20 20
12 15 14 15 16 16 16 13 7 3 3 3 4 3 4 6 7 7 7 7 6 6 7 8 8 7 8 8 7 7 7 8 8 8 9 10 10 11 12 11 12 13 13 12 11 10 11 11 12 12 13 13 13 14 12 12 13 13 12 13 14 13 15 16 15 14 12 12 12 12 12 11 12 13 15 17 18 20 20 20 20 19 18 20 21
20 19 16 16 17 17 15 15 12 8 6 5 6 5 5 6 6 8 9 9 8 7 8 9 10 9 9 10 10 9 10 10 10 10 11 10 11 12 13 13 14 13 13 13 12 12 12 12 12 12 13 13 13 14 14 14 14 15 14 13 14 14 16 17 15 15 14 13 14 13 13 13 13 14 17 18 18 21 21 20 20 19 18 20 21
24 23 21 20 19 18 15 14 13 12 9 8 7 7 7 7 7 8 9 9 10 10 10 11 11 10 10 11 11 11 11 12 12 12 12 11 11 13 14 14 15 14 13 14 14 14 13 13 13 13 13 13 14 14 15 15 15 15 15 15 14 15 17 18 17 17 16 15 16 15 14 14 15 16 19 18 18 21 20 20 20 19 19 20 21
24 24 24 23 22 20 17 15 14 13 11 11 10 10 9 9 10 10 10 10 10 11 12 12 12 12 12 12 12 13 12 13 14 14 14 13 13 14 14 15 15 15 14 14 14 14 14 14 14 14 13 13 14 14 15 15 15 16 17 16 15 15 16 18 19 19 19 18 17 16 15 16 16 17 19 18 18 21 20 20 20 19 21 21 21
24 24 23 23 22 21 20 19 18 17 15 13 12 11 11 11 12 12 12 13 13 12 12 13 13 14 14 14 14 15 14 15 15 14 15 15 15 15 15 16 16 16 15 15 15 14 14 14 14 14 14 13 14 15 16 16 16 16 18 17 17 16 15 17 19 21 21 20 19 18 17 17 17 18 19 18 19 21 20 20 20 20 21 22 23
26 25 24 24 22 20 20 20 19 20 19 19 17 15 14 13 13 12 13 14 15 14 14 14 14 15 16 16 16 17 17 16 16 16 16 17 17 17 17 18 18 18 17 16 16 16 15 16 16 15 15 15 14 14 16 17 17 17 18 18 18 17 16 17 20 22 23 22 21 19 19 19 19 19 20 18 19 21 19 19 20 20 21 22 24
29 28 27 27 25 22 21 21 19 20 19 20 20 19 19 17 15 13 13 13 15 15 15 15 15 16 16 18 18 18 19 17 17 18 18 18 18 18 18 19 20 20 19 19 18 18 17 17 18 17 17 16 16 15 15 17 18 19 18 18 18 18 18 18 21 24 25 23 22 21 20 21 21 21 22 19 19 20 20 20 21 22 22 24 25
31 30 29 29 28 26 24 24 22 22 21 22 22 21 21 20 18 16 14 13 14 15 14 15 16 16 16 19 19 19 20 18 19 20 20 20 19 19 20 20 21 21 20 20 20 20 20 19 19 19 19 18 17 18 18 17 18 19 20 19 20 20 19 19 22 25 26 25 23 21 20 22 22 22 23 21 19 20 21 21 22 23 23 25 27
32 31 31 31 31 28 26 25 25 24 23 23 23 23 23 22 21 19 18 16 16 16 15 15 16 17 17 20 20 19 21 20 20 20 20 20 19 21 22 22 23 22 22 22 21 22 22 21 20 20 20 20 18 19 20 20 19 20 21 21 21 21 20 20 23 26 27 26 24 23 23 24 23 24 24 21 20 22 22 22 23 25 25 27 28
33 32 32 32 34 33 30 28 26 25 25 25 25 25 25 24 23 22 21 20 19 18 18 17 17 17 18 20 21 21 22 22 22 20 21 21 21 23 24 25 25 24 23 23 23 23 23 22 22 21 21 21 20 19 21 21 21 21 21 21 22 22 21 21 24 28 28 27 26 25 26 26 24 24 24 21 20 23 23 24 25 26 27 27 28
32 32 32 32 33 34 34 32 30 28 26 26 26 26 25 25 24 23 23 22 22 21 20 20 19 19 19 20 21 22 22 24 24 22 23 23 22 24 25 26 27 26 24 23 23 24 24 23 23 22 22 22 21 20 20 21 23 22 21 22 23 23 22 22 24 29 30 30 28 28 28 27 24 23 24 22 21 24 24 25 26 27 28 29 28
31 31 32 33 33 32 33 33 32 31 29 28 27 26 25 24 24 24 23 23 23 22 21 21 21 21 21 20 20 21 22 24 25 25 25 25 24 24 25 26 26 26 26 24 24 24 24 24 23 23 23 22 22 22 21 21 22 23 23 23 23 24 24 24 25 29 31 32 31 30 29 28 26 24 25 24 22 24 25 26 27 28 29 30 31
32 31 32 33 34 34 33 33 34 33 31 30 28 27 26 25 24 23 23 23 23 22 22 22 22 22 22 22 21 21 21 22 24 25 26 27 27 26 26 27 27 27 27 26 25 25 25 25 24 23 24 24 23 24 24 23 23 23 24 24 25 25 25 26 28 30 32 34 33 32 31 29 28 26 26 26 24 26 27 28 29 30 31 32 32
33 33 34 34 34 35 35 34 35 35 34 33 31 29 28 27 25 24 24 24 23 22 22 22 22 23 23 23 22 22 22 22 23 24 25 26 27 28 29 30 30 29 29 29 28 27 25 25 25 24 25 26 26 26 25 25 25 24 24 26 26 27 27 27 29 32 33 35 35 34 33 31 29 28 28 27 27 28 29 30 31 31 32 33 33
33 33 34 34 34 35 36 36 35 37 37 36 35 32 30 29 28 26 25 25 25 24 23 22 22 22 23 23 23 22 22 23 23 24 25 26 27 28 30 32 33 32 32 31 31 30 28 27 26 26 26 27 28 28 27 26 26 26 25 26 27 29 28 27 30 34 35 36 37 37 36 34 31 29 30 29 29 30 30 32 33 31 32 34 34
32 32 33 34 33 33 34 35 35 37 39 38 37 35 33 33 32 30 28 27 26 25 24 24 23 22 23 24 24 23 23 23 24 25 26 27 27 27 29 31 33 34 35 34 33 33 31 29 28 28 28 28 29 30 29 28 27 27 26 26 28 30 30 28 31 35 37 38 39 39 39 37 33 31 31 31 31 31 31 34 34 31 31 33 34
30 30 31 31 31 30 31 33 32 35 38 38 37 36 35 34 35 34 32 31 29 27 26 25 25 24 24 25 26 26 26 25 25 26 28 29 29 29 29 29 31 33 36 37 35 34 33 32 31 30 30 30 30 31 31 31 30 28 27 27 28 30 31 30 31 35 38 39 40 41 41 39 34 32 33 32 32 32 32 34 34 32 31 33 34
27 28 29 30 31 29 28 30 30 33 36 36 36 35 35 35 36 36 35 34 33 32 29 28 28 27 28 28 28 28 29 29 28 28 29 30 31 31 31 31 31 32 34 37 38 36 35 34 33 32 32 31 31 32 33 33 32 30 29 28 28 30 33 32 33 35 39 41 41 43 43 41 37 33 34 35 34 34 33 34 35 33 32 33 36
23 26 27 28 30 27 26 29 30 33 35 35 35 34 34 35 36 36 36 36 36 36 34 31 31 32 32 32 30 29 30 31 30 30 30 30 31 32 32 32 33 33 33 35 38 39 39 37 36 34 34 33 33 34 34 35 34 32 31 30 29 31 34 34 35 37 40 42 43 44 44 43 39 35 35 37 35 34 34 35 35 35 33 33 38
21 22 24 25 28 26 23 26 29 32 35 34 35 34 33 34 35 36 36 36 36 37 36 35 35 36 35 34 32 30 30 30 30 30 30 30 31 31 32 32 33 34 35 36 36 38 40 40 39 37 36 36 35 36 36 35 35 34 32 31 31 32 34 36 37 39 41 43 45 46 46 45 42 38 37 39 37 35 35 36 36 37 36 34 37
20 18 19 21 26 26 21 23 27 30 33 34 34 34 33 33 33 34 35 35 35 35 35 35 36 37 36 35 34 34 33 31 31 30 30 30 31 32 32 32 33 33 35 37 38 38 39 42 41 39 39 39 38 38 38 37 37 36 35 34 33 33 35 38 39 40 42 44 46 47 47 47 45 41 39 40 38 36 36 38 38 38 38 36 36
18 17 18 19 25 26 22 22 25 29 32 32 33 33 33 33 33 33 33 33 33 33 33 33 35 36 36 35 35 37 37 36 34 31 30 31 31 31 31 32 33 33 33 35 38 39 40 42 42 41 41 41 40 40 40 39 39 38 38 37 36 35 36 39 40 41 42 44 46 47 48 48 47 44 41 41 40 37 37 38 39 39 39 39 39
17 18 18 19 24 26 24 23 24 29 32 31 32 32 32 32 33 33 34 34 33 33 32 33 33 33 33 33 35 37 39 39 37 32 31 33 34 33 32 33 33 33 32 32 35 38 39 41 42 43 43 43 43 43 42 42 41 41 40 39 38 37 37 40 42 42 43 44 46 47 48 49 49 47 43 42 42 39 39 40 41 41 42 43 43
17 18 17 19 24 26 25 24 24 28 31 31 31 31 31 31 32 33 34 34 34 34 33 33 32 31 31 32 33 35 37 38 38 37 36 36 36 36 35 34 33 33 32 32 33 35 37 40 42 44 44 43 44 44 44 43 42 42 42 40 39 39 39 41 43 44 44 44 46 48 49 49 50 49 45 43 42 40 41 42 43 45 45 45 45
18 19 19 21 25 25 26 25 25 28 31 31 31 31 31 31 31 32 33 33 34 34 34 34 33 32 31 30 31 34 35 35 37 39 40 39 37 37 36 34 32 33 33 33 33 34 36 37 40 43 44 44 44 44 45 44 43 43 42 41 40 40 40 42 43 44 45 45 47 48 50 50 50 50 48 45 43 42 43 43 44 46 47 48 47
20 20 21 23 25 26 27 27 27 29 31 31 31 32 32 32 32 33 34 34 34 35 35 35 35 35 34 31 31 33 33 34 35 37 40 41 40 38 37 35 33 33 34 34 33 33 35 36 37 40 44 45 45 45 44 44 44 43 43 42 42 41 41 42 44 45 46 46 47 49 51 51 50 51 50 47 45 45 45 45 45 47 49 49 48
20 21 22 23 25 26 27 28 28 30 32 31 32 32 32 32 32 33 33 33 34 34 35 35 35 36 35 35 34 34 33 34 35 35 37 39 40 39 38 36 34 33 33 35 35 34 34 35 36 38 41 44 46 46 44 44 44 44 43 43 43 43 42 43 44 45 47 47 48 49 51 53 51 51 51 50 48 48 47 46 46 48 49 47 47
20 20 22 23 24 26 28 28 29 31 31 31 31 32 32 32 32 33 32 33 33 34 34 34 35 35 35 36 36 36 35 35 35 35 35 37 38 38 38 37 36 35 34 35 36 35 35 35 36 37 39 40 42 45 44 44 44 44 44 44 43 42 42 43 44 45 46 47 48 49 51 54 53 51 52 52 51 49 49 48 47 48 49 47 49
19 20 22 24 24 26 28 28 29 31 31 30 31 32 32 33 33 34 34 35 35 35 35 35 35 35 35 35 35 36 36 36 36 36 36 37 36 36 37 37 37 36 35 34 35 36 36 36 37 38 40 40 39 41 43 44 44 44 44 44 43 42 42 43 43 45 46 47 47 49 50 52 54 53 52 53 53 51 48 49 49 48 49 50 53
18 19 21 23 24 26 27 28 29 30 30 31 32 33 34 35 35 36 36 37 38 38 38 38 37 37 37 37 36 36 35 36 36 38 38 37 36 37 37 36 36 37 36 35 34 35 36 37 37 38 40 40 39 40 40 41 43 43 43 43 43 42 43 43 44 45 45 47 47 48 49 51 54 54 53 53 54 53 48 47 49 49 49 53 55
17 18 21 22 24 26 27 28 29 30 32 33 35 36 37 37 37 37 38 40 41 42 42 41 41 41 41 41 40 38 36 36 37 40 40 37 37 38 38 36 35 36 37 36 34 35 37 38 38 37 38 39 40 40 39 40 42 42 42 43 43 43 44 43 44 45 45 47 48 49 48 50 52 54 55 54 54 54 50 48 48 49 50 53 55
17 18 20 23 24 27 28 29 31 33 35 36 37 38 38 37 37 38 40 42 43 43 42 42 42 43 43 43 41 40 38 37 38 40 40 38 38 39 39 38 36 35 36 36 35 36 36 37 38 37 38 39 39 39 40 41 42 42 43 43 42 43 43 43 44 44 45 46 47 49 50 50 51 54 56 56 55 54 52 49 48 49 50 53 57
17 19 21 24 25 27 29 32 35 36 37 37 38 37 37 36 36 37 39 42 42 41 41 41 41 42 42 41 39 38 38 39 39 38 39 40 40 40 40 39 38 36 35 36 35 36 36 36 38 36 36 39 39 38 39 42 43 43 43 42 42 42 42 44 44 44 45 44 45 48 50 51 52 54 56 56 55 55 53 50 48 48 49 53 58
18 20 22 25 27 29 32 35 36 37 37 37 37 37 36 35 35 38 40 41 39 38 39 40 41 41 41 40 39 40 40 40 39 38 39 40 41 41 41 40 39 38 36 35 34 35 35 34 36 37 35 37 40 38 37 40 43 43 43 42 42 42 42 44 45 45 44 44 45 46 48 50 51 53 55 55 54 52 51 50 48 47 50 53 57
19 20 23 25 28 30 33 34 34 34 35 35 36 34 34 35 37 39 39 39 38 37 38 40 40 41 41 41 42 43 43 42 41 40 40 40 40 42 42 41 40 39 37 35 34 34 34 33 34 37 36 35 40 40 36 37 41 42 41 43 44 42 43 43 44 44 44 46 47 47 48 49 50 53 53 53 53 50 49 49 47 47 50 53 54
20 21 24 27 29 31 32 33 33 34 34 34 34 34 35 37 39 40 39 38 40 41 40 40 40 39 40 41 41 42 42 40 40 40 41 41 40 41 41 41 40 40 38 35 34 33 32 34 34 36 38 37 39 41 39 38 40 40 39 42 43 43 44 43 43 44 46 47 47 47 48 49 50 52 52 52 51 50 49 48 47 48 51 56 58
20 21 23 27 29 30 32 32 32 32 32 32 32 34 36 38 39 39 39 40 42 43 40 38 39 39 39 40 39 38 38 38 39 39 40 39 39 40 40 40 40 39 38 35 33 33 32 33 35 35 37 38 38 40 39 38 38 38 39 41 41 42 43 43 43 43 46 47 48 48 47 48 50 50 51 52 50 49 49 48 49 49 50 56 63
19 20 23 27 28 29 30 30 29 28 29 30 32 33 34 37 38 38 40 42 42 42 41 40 40 40 39 38 37 37 39 42 43 43 42 40 39 40 40 41 40 39 38 35 34 34 32 32 34 34 33 34 35 35 37 38 32 25 25 28 32 36 38 41 42 43 45 46 47 50 49 47 49 50 50 50 49 49 50 49 50 50 50 55 64
18 19 22 25 26 27 27 26 25 26 28 29 30 31 32 34 36 37 40 42 41 40 41 42 43 42 38 36 37 39 39 41 45 46 45 43 40 39 41 41 40 38 37 36 35 34 32 31 31 31 31 31 32 33 35 33 25 16 12 10 10 19 26 32 39 43 43 42 42 47 52 48 46 50 49 47 48 48 49 49 50 51 52 51 54
16 17 20 23 24 25 24 24 24 26 28 28 29 30 33 34 34 35 37 40 41 40 41 42 41 41 40 38 37 37 38 40 43 44 43 41 39 39 40 40 39 37 37 37 36 33 31 31 28 29 30 29 31 33 35 31 24 20 13 8 5 6 10 16 26 38 42 39 36 40 48 51 47 46 48 47 46 46 48 49 51 52 54 50 41
14 16 19 22 22 22 22 24 25 26 27 28 29 30 34 35 35 35 35 35 37 39 42 44 43 43 42 40 38 38 38 39 40 41 43 43 40 39 39 39 39 39 39 38 36 33 31 30 28 27 27 26 27 31 35 36 33 26 11 4 6 7 7 8 11 23 34 35 33 33 38 46 46 44 46 47 45 45 47 49 50 48 49 51 40
13 14 17 19 20 20 22 24 24 25 26 27 29 31 33 35 36 37 36 35 35 35 36 42 47 47 45 42 42 41 39 39 39 40 42 42 41 41 40 40 40 40 40 38 36 35 32 30 29 26 24 24 25 29 33 36 39 36 24 9 5 7 9 11 9 11 20 28 33 32 30 36 40 40 41 42 41 42 43 44 46 44 41 46 43
9 11 14 17 18 19 22 24 24 25 26 27 29 30 31 33 34 34 34 34 36 35 34 38 43 44 45 45 44 42 40 41 40 37 38 41 41 42 41 40 39 39 39 39 37 34 32 32 30 26 24 25 25 26 29 35 40 40 39 33 21 13 9 11 10 4 8 18 28 34 32 32 35 37 36 37 38 38 38 39 42 42 40 41 46
7 9 13 16 18 20 23 25 25 25 27 28 28 29 29 31 30 29 29 28 30 36 40 42 41 41 44 45 44 42 40 39 37 35 38 41 43 42 42 40 38 37 37 38 37 34 34 34 30 25 24 24 24 23 26 31 33 36 39 42 37 24 15 17 15 6 5 8 16 27 33 33 34 35 37 37 38 38 36 38 41 42 43 43 45
7 9 12 15 18 21 23 25 25 25 26 27 26 26 28 29 29 28 28 27 28 34 40 42 42 43 44 43 42 42 40 38 37 37 38 40 42 42 40 38 37 36 36 36 37 37 37 35 29 25 22 22 22 23 27 28 24 29 36 35 34 26 24 30 26 15 11 8 8 15 23 32 34 34 37 39 39 41 39 39 43 45 45 46 46
7 9 12 15 18 21 23 25 26 25 26 26 26 26 26 27 28 29 30 31 31 34 37 39 42 44 44 43 42 41 41 39 38 37 38 39 40 40 38 38 39 38 37 35 36 38 38 35 30 25 22 21 22 24 27 29 27 28 33 30 24 21 23 30 27 14 10 11 9 8 11 19 25 29 36 40 41 44 44 40 44 49 47 48 51
7 9 12 15 18 22 24 25 26 26 26 25 25 25 26 26 27 28 30 32 34 36 38 39 40 40 42 43 43 42 42 41 39 38 38 39 38 38 38 39 39 38 38 36 35 37 38 36 32 27 23 21 22 25 27 30 30 28 30 31 21 17 14 14 15 10 9 11 10 11 12 11 14 20 30 39 42 45 47 42 41 48 48 47 52
8 9 12 16 21 24 24 25 25 25 25 25 25 25 26 25 26 28 29 31 33 35 37 39 39 39 41 43 44 43 42 41 41 39 37 38 38 39 40 40 39 38 38 36 35 36 37 37 34 27 23 21 20 24 28 30 31 29 30 32 26 21 20 14 14 14 11 9 10 11 11 13 12 13 24 35 39 42 45 43 40 45 47 45 50
Wind_Direction
359 1 357 13 16 14 4 330 296 280 255 345 31 181 200 209 222 227 225 222 231 224 222 232 239 234 222 227 247 268 272 286 292 291 294 296 294 291 293 288 282 278 277 276 274 276 277 278 278 275 272 271 272 273 268 263 250 242 245 238 233 230 225 220 218 220 222 212 209 228 233 224 216 208 205 199 186 181 180 174 171 169 165 163 161
356 9 5 14 17 19 15 360 340 292 262 282 299 318 253 238 237 233 229 226 239 236 237 242 248 247 239 235 238 259 264 273 279 286 289 286 288 287 289 287 288 287 286 284 279 275 275 278 280 280 276 271 266 264 266 266 259 246 242 240 238 232 224 220 221 222 220 212 217 232 225 216 205 193 195 190 179 175 174 171 170 168 166 165 162
11 19 18 20 21 23 21 13 359 288 286 282 267 311 307 277 262 254 247 241 247 240 244 246 249 251 253 251 239 241 248 258 270 282 282 278 282 282 282 281 285 291 292 289 282 276 273 274 276 277 276 274 268 258 252 258 263 256 245 241 241 233 223 221 222 221 216 214 224 224 206 202 195 187 184 180 175 172 171 169 170 170 169 166 164
34 27 23 23 24 25 25 16 360 310 284 284 265 282 312 300 283 275 270 263 262 254 255 253 251 250 254 258 251 249 251 252 257 266 270 273 278 279 281 279 281 287 290 287 280 277 276 273 271 271 270 270 269 263 250 245 258 262 255 245 245 240 226 221 220 219 216 216 225 216 196 192 188 186 181 177 175 173 172 169 170 172 169 165 163
49 42 36 31 29 27 26 17 5 341 312 295 275 268 296 306 300 288 282 279 276 268 264 265 263 259 256 258 258 259 259 258 258 260 261 265 271 274 277 276 277 279 282 282 278 276 274 273 271 270 266 263 263 265 258 245 249 259 260 252 246 242 229 223 222 220 215 213 221 212 196 189 183 183 181 179 177 174 172 170 172 171 167 164 163
53 49 45 41 36 31 26 17 9 353 334 318 305 294 290 290 295 290 288 287 285 283 277 272 270 270 266 261 261 262 260 263 265 265 264 262 266 269 270 272 275 277 277 277 275 273 270 268 268 269 265 262 258 258 260 251 247 252 258 258 249 241 231 228 227 221 214 210 218 211 198 189 181 182 181 182 179 176 173 172 174 172 168 165 165
55 51 47 44 39 34 30 23 17 5 352 337 329 321 309 300 296 287 288 285 284 287 286 283 277 276 270 266 268 267 262 264 266 267 270 267 266 267 267 269 271 273 274 273 271 270 266 265 266 268 265 260 256 252 255 254 249 247 251 257 253 246 235 231 228 221 213 207 214 210 200 192 183 182 182 185 183 179 176 175 177 176 172 169 168
54 51 49 47 43 38 35 30 27 23 18 6 353 342 329 319 311 298 295 291 287 287 288 291 289 286 279 273 272 270 266 266 266 266 269 269 268 266 265 265 264 266 268 269 269 267 263 261 261 264 268 263 257 250 248 250 249 245 245 251 253 250 239 233 227 219 212 205 210 210 202 194 188 184 183 188 188 183 181 179 180 180 178 174 170
52 51 49 47 44 41 38 34 31 28 26 23 18 10 0 345 331 314 307 302 297 293 287 289 291 293 290 283 277 274 271 268 266 265 265 265 266 265 264 262 261 262 263 265 266 266 263 260 257 255 257 260 262 258 249 245 245 244 242 243 248 250 242 235 226 217 212 206 208 209 203 196 192 188 185 191 192 188 185 183 183 183 182 177 171
54 52 50 47 43 40 40 37 37 33 30 28 23 20 15 8 357 340 325 314 308 303 294 291 291 293 294 290 284 281 278 274 270 268 267 265 264 263 264 264 262 262 260 261 263 265 266 265 264 259 252 250 253 257 257 251 246 243 241 240 242 247 245 237 227 217 211 207 207 207 205 201 197 194 190 192 195 191 187 186 185 183 182 177 173
53 53 50 47 43 39 39 37 38 36 35 33 27 23 19 15 10 2 350 336 328 322 310 303 299 296 296 293 289 286 284 280 275 274 273 268 265 263 263 266 265 264 262 260 262 263 264 265 267 267 263 256 250 248 251 253 252 245 240 238 238 243 245 239 227 217 212 207 207 208 209 208 203 199 194 192 195 195 193 189 186 183 181 179 174
53 53 52 49 46 43 41 39 37 35 35 34 30 27 23 19 15 10 4 355 348 341 330 320 313 307 302 300 297 294 290 285 281 279 277 272 268 266 266 266 266 265 264 262 262 262 262 263 264 266 266 263 258 250 247 246 249 249 243 236 235 240 242 240 228 219 215 211 210 209 211 211 207 203 198 194 195 200 198 191 188 186 182 180 176
52 51 51 51 49 47 46 44 42 40 37 34 31 28 24 21 18 15 11 3 357 351 345 336 328 319 311 306 304 301 297 293 290 285 281 276 271 271 270 267 267 267 265 264 263 262 261 263 263 263 263 263 261 255 250 246 244 247 246 238 234 237 238 239 233 225 220 216 213 209 209 209 207 205 201 197 197 202 200 192 190 186 183 181 176
50 48 47 46 46 46 46 46 45 44 42 38 34 30 26 22 20 16 13 9 2 357 354 348 342 334 325 317 310 305 300 298 296 292 290 286 279 276 274 270 269 270 268 264 263 262 261 262 262 261 260 260 260 256 252 249 246 245 246 242 236 235 235 236 235 230 224 220 215 209 210 209 206 207 205 202 200 202 199 193 191 186 183 180 177
48 45 44 42 40 39 40 41 41 42 42 40 37 34 30 26 22 18 14 10 6 1 357 353 347 342 337 331 323 315 306 300 297 293 292 292 289 284 279 273 269 271 270 264 262 262 262 262 261 260 258 256 256 256 255 252 250 247 244 243 239 236 235 235 233 230 225 221 216 211 211 211 208 208 208 206 202 201 198 192 191 188 183 179 178
47 44 41 39 36 34 32 32 32 34 36 36 36 35 32 28 25 21 18 12 7 2 358 354 350 346 342 338 333 327 319 312 306 299 292 289 288 286 283 278 273 273 272 266 262 261 261 261 261 261 259 255 252 253 255 254 253 250 246 242 240 237 237 236 233 229 224 221 217 212 211 213 212 209 209 208 203 203 199 194 192 189 184 181 179
43 41 38 35 32 30 28 26 24 25 26 27 28 29 28 26 23 19 18 15 11 5 359 355 350 347 343 340 337 334 329 323 318 313 306 298 292 287 282 280 278 276 273 267 264 262 259 258 259 261 260 256 253 252 252 253 252 251 249 245 241 239 238 238 233 228 225 221 218 214 212 213 214 212 211 210 205 204 201 196 193 190 186 184 181
40 38 36 32 29 26 24 22 19 19 18 19 20 20 20 19 18 16 14 12 9 6 2 358 352 347 343 340 337 335 332 327 323 319 317 313 307 299 290 283 279 277 274 269 265 263 259 257 259 260 260 257 255 254 252 251 250 249 249 247 244 242 241 239 233 228 225 222 220 218 216 215 216 215 213 212 206 204 203 199 194 191 189 187 184
36 35 34 30 27 24 22 21 18 15 14 14 14 14 14 12 11 10 9 8 6 3 1 358 355 351 348 344 340 336 332 328 325 322 319 317 315 312 305 294 283 277 275 272 267 262 259 259 259 259 259 257 255 255 255 252 250 247 247 247 246 243 241 240 234 227 225 224 223 220 218 218 218 217 215 215 209 203 202 199 195 193 192 189 185
33 31 31 28 26 24 20 20 18 14 12 12 13 12 12 9 7 6 5 4 2 1 359 356 353 352 351 347 343 340 338 333 328 326 323 320 317 315 312 307 296 282 275 273 270 263 257 257 259 259 258 256 255 254 255 255 252 249 247 246 247 244 240 239 235 228 225 224 224 221 219 219 219 218 216 217 212 205 203 200 196 195 195 192 185
29 27 26 23 22 23 18 17 16 13 12 14 14 13 12 9 7 5 4 2 0 359 358 356 353 351 349 346 344 343 342 339 334 331 327 323 320 317 314 311 306 295 281 273 272 267 259 256 258 260 258 256 255 254 254 254 254 252 249 246 245 244 239 237 235 229 225 224 224 221 219 219 218 217 218 219 214 206 205 202 199 197 197 193 187
24 23 22 20 18 20 17 14 12 11 12 14 14 14 12 10 8 5 4 2 0 359 358 356 352 349 346 345 346 345 342 339 336 334 329 325 321 318 315 311 306 301 291 278 272 270 265 261 259 259 258 256 254 253 252 252 253 253 252 248 244 242 238 235 234 229 226 224 224 222 219 219 219 218 218 219 213 206 206 206 203 200 199 197 191
20 18 19 19 16 17 17 12 10 9 10 12 12 11 10 8 6 4 2 1 359 358 357 354 349 348 348 346 346 344 341 338 335 333 330 327 322 319 316 312 307 302 298 288 276 271 268 264 260 259 258 257 254 251 250 250 251 251 251 249 244 241 237 234 232 229 227 224 224 224 221 219 219 219 218 219 215 207 207 207 204 201 200 200 193
22 18 18 20 15 16 17 11 9 8 9 9 8 8 7 5 3 1 359 358 356 355 355 351 347 347 348 346 343 341 339 337 334 332 330 328 326 324 320 316 312 308 304 294 281 272 268 265 260 258 257 256 252 249 248 248 248 249 249 248 244 241 236 232 230 228 227 225 224 225 223 220 218 218 217 217 216 210 207 207 205 202 200 200 193
24 23 22 20 14 15 16 11 7 7 7 6 5 5 3 2 0 359 356 355 354 351 350 348 345 344 344 342 339 338 337 336 336 334 331 330 328 326 324 320 315 312 309 300 286 275 268 265 261 257 255 253 250 248 246 246 245 246 246 246 244 241 235 231 230 228 227 226 225 225 224 220 216 217 216 215 215 212 210 209 207 203 201 201 197
23 22 22 19 12 12 13 9 6 5 6 3 2 1 0 359 357 355 353 352 350 348 347 344 342 341 340 338 335 335 334 333 334 333 329 327 326 324 322 318 315 312 310 305 294 281 270 265 262 259 255 252 249 247 246 245 243 243 244 244 243 239 235 231 229 229 228 226 226 225 224 220 216 216 216 215 215 214 212 211 209 204 201 200 198
20 20 21 18 11 11 11 9 5 3 3 1 359 358 358 356 353 352 349 349 347 345 344 341 340 338 336 333 332 331 330 329 329 328 327 326 324 323 321 318 315 313 311 308 301 292 279 268 261 258 256 252 248 245 245 244 242 241 241 242 241 237 233 231 228 228 228 227 226 226 223 220 217 216 216 216 215 214 214 215 212 207 203 200 198
20 20 20 16 11 12 12 9 6 2 1 360 358 357 356 353 350 348 346 345 343 342 340 338 337 335 333 330 328 326 324 323 323 323 323 323 322 322 321 319 315 313 313 310 305 299 290 276 265 259 255 251 248 245 243 243 241 239 238 239 239 236 232 230 229 228 228 227 226 225 222 220 219 217 216 217 216 214 215 216 214 209 204 200 198
21 20 18 14 12 12 11 9 5 1 360 359 358 356 354 351 349 346 344 342 340 339 337 335 334 333 331 328 326 324 320 317 317 318 319 318 319 319 319 318 315 313 313 311 307 303 295 284 273 263 255 250 248 245 243 241 240 237 237 236 236 234 231 230 229 227 227 227 225 225 222 220 220 218 217 217 216 216 217 216 214 212 206 200 197
22 20 16 12 12 10 8 6 3 1 359 358 357 355 352 350 346 344 342 340 338 336 334 333 332 330 329 327 325 323 318 314 311 311 313 314 314 315 315 315 313 313 313 311 310 306 299 290 280 268 258 250 246 245 243 240 239 237 235 235 235 233 231 229 228 227 226 226 225 224 223 220 220 219 218 218 217 217 217 216 215 213 208 201 195
22 19 13 10 10 8 5 4 2 359 357 357 355 352 350 347 344 342 340 339 337 335 333 331 329 327 326 324 322 321 318 313 308 307 308 309 309 310 311 311 311 312 312 311 310 308 303 296 286 276 266 256 247 244 242 239 237 236 234 234 234 233 231 229 228 227 225 225 224 224 223 221 220 219 219 219 218 218 218 217 215 213 208 202 195
20 15 10 8 8 5 3 2 0 358 357 356 353 350 348 346 344 343 341 339 338 335 333 330 328 325 323 322 319 317 315 312 307 305 305 304 304 306 306 306 307 310 311 310 310 308 306 301 293 285 275 267 258 249 242 238 236 234 233 232 232 231 230 229 227 226 225 224 223 223 223 221 220 220 220 220 220 220 220 219 216 211 207 203 196
16 12 8 6 6 4 2 1 360 358 357 354 351 349 347 346 345 343 342 340 339 336 333 331 328 326 324 321 318 314 312 310 307 305 304 301 301 303 302 301 303 306 308 308 308 308 308 304 299 293 280 268 261 255 246 239 235 233 232 231 230 230 230 229 227 225 224 223 222 221 222 221 221 220 220 221 222 222 221 222 218 212 208 204 197
11 9 6 5 5 4 2 1 0 358 356 353 351 349 347 346 345 343 342 340 338 336 334 332 329 327 324 321 318 315 311 309 307 305 302 298 299 300 298 296 298 302 304 305 306 307 308 305 302 298 286 270 260 256 249 241 237 233 232 231 230 229 229 227 227 225 223 223 222 221 221 221 221 220 220 222 224 223 221 222 218 212 209 205 198
8 7 5 5 5 5 4 2 1 359 356 354 351 349 347 346 345 343 340 338 336 335 333 331 328 326 323 321 318 315 312 309 307 304 300 297 298 297 295 293 294 297 299 299 302 305 307 306 303 299 291 278 262 255 252 244 238 233 231 230 229 228 228 226 226 224 222 222 221 220 221 220 220 219 220 221 223 222 220 220 217 210 209 207 199
10 8 6 7 6 5 5 3 1 358 355 353 350 348 347 345 343 340 337 336 335 334 333 330 327 325 323 320 317 315 312 309 306 301 297 295 296 295 293 291 291 294 294 294 297 303 306 305 304 300 292 283 270 258 252 246 238 234 230 228 228 227 226 225 224 223 221 221 220 218 218 218 219 218 218 218 219 219 217 219 218 210 207 206 198
14 11 8 7 6 7 6 3 359 356 354 351 349 348 346 343 340 337 336 336 336 334 331 328 325 323 321 318 315 314 312 310 307 301 295 292 293 294 292 289 288 290 290 290 292 299 303 304 304 301 293 286 277 261 249 245 238 232 229 227 228 227 225 223 222 222 220 219 220 218 215 216 217 217 216 215 215 216 215 216 217 211 206 202 193
17 12 10 9 9 8 5 1 357 354 353 351 349 347 344 341 338 336 336 335 334 331 329 326 324 322 319 316 314 312 309 307 306 303 296 291 290 291 290 287 285 286 285 285 289 295 300 302 302 302 298 289 281 266 249 243 238 231 227 225 225 225 224 222 220 219 217 217 218 218 216 214 215 214 214 214 213 214 214 212 212 210 207 201 192
15 11 10 9 9 7 3 359 356 353 351 350 349 345 342 340 338 337 336 334 332 329 328 326 324 322 319 315 314 311 309 306 305 305 300 293 290 288 287 286 283 282 281 280 286 292 297 300 300 302 301 294 286 272 252 241 238 233 227 224 223 222 222 220 218 216 214 215 216 216 215 212 212 213 211 211 211 211 212 212 209 208 208 203 193
12 10 10 10 10 6 1 358 354 351 349 349 348 345 343 341 339 337 335 332 330 328 327 325 323 322 320 318 317 317 316 314 312 311 306 299 294 289 287 285 283 280 275 276 283 289 293 297 300 302 302 297 289 278 260 242 236 234 227 224 221 220 220 218 215 214 213 214 214 213 212 210 210 211 209 208 208 208 210 211 209 206 208 203 192
10 12 12 11 8 4 359 355 351 348 348 348 348 346 344 341 338 336 332 329 328 326 325 325 324 323 322 322 321 318 316 315 314 313 309 304 301 296 291 286 283 278 272 274 280 285 288 293 298 300 299 295 286 280 270 250 236 233 226 222 219 216 217 217 214 213 213 212 211 209 209 209 208 208 207 205 204 205 206 208 208 206 205 199 189
10 13 12 8 4 1 356 351 347 346 346 347 345 343 342 341 337 332 329 326 325 325 323 324 325 324 323 322 320 318 315 314 315 314 310 305 301 300 296 289 283 276 272 275 279 280 284 290 295 298 297 293 283 280 276 257 234 219 212 207 213 212 214 216 213 211 211 211 208 206 205 206 206 204 203 202 201 203 203 204 205 204 203 200 190
11 12 8 5 2 358 352 348 346 345 344 343 343 340 338 339 336 331 328 325 324 324 323 323 325 324 323 321 320 318 315 313 313 314 312 307 303 301 300 294 284 277 275 276 276 275 280 286 290 294 296 293 286 281 278 267 238 212 201 191 182 193 208 214 212 208 205 205 205 202 200 200 202 200 199 200 200 199 201 201 201 203 202 206 205
11 10 5 2 359 354 349 346 344 342 341 341 339 337 336 337 335 330 328 324 322 324 325 325 326 324 322 321 319 318 315 312 311 311 309 307 305 302 301 299 291 283 278 274 272 272 276 282 286 291 293 292 290 284 279 273 248 219 196 194 188 182 206 201 200 205 200 198 200 198 194 193 194 194 195 197 196 194 196 197 199 202 201 203 212
10 5 1 358 355 350 346 343 341 340 340 339 338 337 337 336 335 332 331 328 325 325 326 326 325 324 322 319 317 317 316 312 309 307 307 307 306 304 302 301 297 290 281 272 270 271 272 278 283 287 289 287 288 285 281 279 263 233 207 197 181 182 207 188 171 198 197 195 199 199 196 191 187 187 189 191 190 189 192 193 196 199 199 197 199
1 356 354 353 351 347 344 341 341 341 339 339 337 336 336 335 335 333 331 329 326 324 324 323 322 320 318 316 315 315 315 313 309 306 307 308 307 305 303 301 301 297 287 276 268 267 269 274 279 283 286 286 285 285 280 279 279 258 224 206 199 202 202 174 169 184 185 193 197 197 199 195 187 184 187 188 187 187 188 189 191 192 190 186 183
342 344 346 349 348 345 344 342 341 340 338 337 336 333 333 332 331 328 324 322 318 317 320 320 318 316 314 313 313 313 313 312 309 307 306 307 307 305 302 301 302 303 297 283 271 266 268 270 274 280 285 287 283 280 279 277 282 277 247 216 204 211 203 175 173 164 158 191 192 189 194 195 190 185 185 188 186 183 182 181 183 182 178 175 171
326 334 342 345 345 344 343 342 340 338 336 335 332 330 329 328 327 323 319 316 313 312 316 317 316 315 314 312 312 311 311 310 307 306 306 306 307 305 302 302 304 306 304 293 280 272 267 267 270 277 283 285 282 276 278 278 275 279 268 235 211 211 202 187 182 175 167 173 176 180 185 187 188 188 188 188 185 181 179 177 177 174 171 170 168
314 326 337 340 342 344 343 340 337 335 334 332 329 326 326 325 323 321 317 315 314 313 315 315 315 316 314 312 312 310 309 308 305 305 304 304 305 304 302 303 304 305 305 302 294 279 265 263 268 274 279 280 283 280 277 277 270 271 274 258 226 204 198 192 185 176 169 165 167 174 170 175 181 186 187 185 182 181 179 177 175 172 168 167 167
307 320 330 336 342 344 343 338 334 332 331 330 327 324 324 323 321 319 316 314 315 316 316 315 315 315 313 311 312 311 309 307 305 304 303 303 303 302 303 304 304 304 304 306 305 288 268 262 265 269 275 279 281 280 277 277 273 270 274 271 244 195 185 193 180 166 170 172 173 172 163 165 173 178 182 179 176 176 175 175 171 165 165 165 163
300 313 326 338 344 344 340 334 330 329 328 327 325 322 321 320 318 317 313 312 314 315 316 315 314 314 312 311 311 310 307 306 305 304 302 302 301 301 303 304 304 303 304 304 305 298 282 268 264 265 270 276 281 280 278 278 276 272 274 277 263 215 185 185 187 176 171 174 172 169 168 169 167 170 177 175 172 170 170 172 168 160 163 165 162